Home > Weather > Neumünster > Past weeks

Flag for Germany Past Weather in Neumünster, Schleswig-Holstein, Germany — Yesterday and Last 2 Weeks

Now
67 °F

Partly sunny.


Feels Like: 67 °F
Forecast: 53 / 62 °F
Wind: 2 mph from Southwest

Location: Itzehoe

Current Time: Jul 1, 2016 at 5:20:58 PM

Latest Report: Jul 1, 2016 at 4:00 PM


Visibility: 19 mi

Pressure: 29.85 "Hg

Humidity: 78%

Dew Point: 60 °F

Location of NeumünsterLocation

Past Weather in Neumünster — Graph

°F

Neumünster Temperature Yesterday

Maximum temperature yesterday: 66 °F (at 6:00 PM)
Minimum temperature yesterday: 57 °F (at 12:00 AM)
Average temperature yesterday: 61 °F

High & Low Weather Summary for the Past Weeks

 TemperatureHumidityPressure
High86 °F (Jun 23, 7:00 PM)96% (Jun 18, 4:00 AM)30.22 "Hg (Jun 18, 4:00 AM)
Low48 °F (Jun 20, 1:00 AM)43% (Jun 28, 6:00 PM)29.57 "Hg (Jun 17, 6:00 AM)
Average62 °F80%29.96 "Hg
* Reported Jun 16 4:00 PM — Jul 1 4:00 PM, Neumünster, Weather by CustomWeather, © 2016

Note: Actual official high and low records may vary slightly from our data, if they occured in-between our weather recording intervals... More about our weather records

Advertising

Neumünster Weather History for the Previous 24 Hours

Scroll right to see more
 ConditionsComfort  
Time TempWeatherWind HumidityBarometerVisibility
4:00 PM
Fri, Jul 1
67 °FPartly sunny.2 mph78%29.85 "Hg19 mi
3:00 PM68 °FOvercast.5 mph72%29.85 "Hg22 mi
1:00 PM67 °FPartly sunny.6 mph72%29.85 "Hg11 mi
12:00 PM65 °FPartly sunny.5 mph82%29.85 "Hg9 mi
10:00 AM63 °FOvercast.5 mph85%29.84 "Hg14 mi
9:00 AM64 °FOvercast.5 mph82%29.83 "Hg14 mi
7:00 AM61 °FOvercast.3 mph88%29.83 "Hg9 mi
6:00 AM60 °FOvercast.2 mph90%29.83 "Hg6 mi
4:00 AM61 °FOvercast.3 mph88%29.83 "Hg9 mi
3:00 AM62 °FOvercast.3 mph87%29.84 "Hg9 mi
1:00 AM62 °FOvercast.3 mph87%29.84 "Hg9 mi
12:00 AM62 °FOvercast.2 mph85%29.85 "Hg11 mi
10:00 PM
Thu, Jun 30
61 °FOvercast.2 mph92%29.86 "Hg11 mi
9:00 PM61 °FPartly sunny.2 mph90%29.86 "Hg11 mi
7:00 PM66 °FPassing clouds.2 mph77%29.86 "Hg31 mi
6:00 PM66 °FPartly sunny.1 mph78%29.86 "Hg13 mi
Weather by CustomWeather, © 2016

See weather overviewHow to use our weather pages